Location: Neuvy Saint Sepulchre
(46.5953°N, 1.8122°E)
Time: 10:23:14
(UTC+02:00)

ISS - Pass Details

Date: 28 March 2024
Orbit: 413 x 419 km, 51.6° (Epoch: 13 April)

Event Time Altitude Azimuth Distance (km) Brightness Sun altitude
Rises 21:25:58 0° 290° (WNW) 2,366 1.5 -21.7°
Reaches altitude 10° 21:28:18 10° 277° (W) 1,500 0.0 -22.1°
Enters shadow 21:30:46 24° 230° (SW) 919 -1.9 -22.4°
